Simultaneous Nadir Overpasses (SNOs) Predictions

Prediction of SNOs between LANDSAT-8 and NOAA-19 Satellite Orbit:

Table of predicted SNOs for the next 14.0 days since TLE Epoch: 3/14/2020
Index Date (LANDSAT-8) Time (LANDSAT-8) Lat,Lon (LANDSAT-8) SZA (LANDSAT-8 ) Date (NOAA-19) Time (NOAA-19) Lat,Lon (NOAA-19) SZA (NOAA-19 ) Distance(km) Time Diff (sec)
1 03/15/2020 22:59:09 79.54,-140.87 81.89 03/15/2020 22:59:13 79.54,-140.72 81.91 3.15 4
2 03/18/2020 04:32:52 -79.56, -44.17 98.95 03/18/2020 04:32:38 -79.56, -44.10 98.96 1.51 14
3 03/18/2020 05:22:18 79.56, 123.45 81.03 03/18/2020 05:23:31 79.48, 123.91 81.02 12.70 73
4 03/20/2020 10:06:34 79.57, 52.47 80.20 03/20/2020 10:05:54 79.58, 52.43 80.19 1.17 40
5 03/20/2020 10:56:02 -79.54,-140.11 99.87 03/20/2020 10:56:58 -79.56,-140.10 99.83 1.77 56
6 03/22/2020 15:40:17 -79.59, 149.18 100.65 03/22/2020 15:39:18 -79.58, 149.20 100.68 1.73 59
7 03/22/2020 16:29:44 79.55, -43.50 79.28 03/22/2020 16:30:14 79.57, -43.50 79.32 2.97 30
8 03/24/2020 22:03:27 -79.57, 53.22 101.56 03/24/2020 22:03:38 -79.58, 53.17 101.55 1.60 11
9 03/27/2020 03:37:08 79.60, 150.04 77.64 03/27/2020 03:36:54 79.58, 149.95 77.60 3.15 14




NCC Satellite Simultaneous Nadir Overpasses (SNOs) Prediction Service
